{"data":{"norad_id":49098,"epoch":"2026-09-20T04:23:35.089728Z","epoch_age_seconds":49302,"freshness":"FRESH","line1":"1 49098U 21075Z   26263.18304502 -.00002347  00000+0 -60793-2 0  9991","line2":"2 49098  87.9183 347.0075 0001499 102.7629 257.3670 13.17659047246111","mean_motion":13.17659047,"eccentricity":0.0001499,"inclination_deg":87.9183,"raan_deg":347.0075,"arg_perigee_deg":102.7629,"mean_anomaly_deg":257.367,"bstar":-0.0060793,"rev_number":24611,"period_min":109.28471999479,"perigee_km":1192.5397555672,"apogee_km":1194.8097847358,"semimajor_km":7571.8117701515,"source":"CELESTRAK","updated_at":"2026-09-20T09:00:44.657411Z"}}